TimeCET,TemperatureF,Dew PointF,Humidity,Sea Level PressureIn,VisibilityMPH,Wind Direction,Wind SpeedMPH,Gust SpeedMPH,PrecipitationIn,Events,Conditions,WindDirDegrees,DateUTC
12:25 AM,55.4,51.8,88,29.50,5.0,SSW,19.6,-,N/A,Rain,Light Rain Showers,200,2013-10-27 23:25:00
12:55 AM,55.4,53.6,94,29.47,6.2,South,16.1,-,N/A,Rain,Light Rain,190,2013-10-27 23:55:00
1:00 AM,55,53,89,29.47,6,South,15.7,,,Rain,Light Rain,190,2013-10-28 00:00:00
1:25 AM,55.4,53.6,94,29.44,3.7,South,16.1,-,N/A,Rain,Light Rain Showers,180,2013-10-28 00:25:00
1:55 AM,55.4,53.6,94,29.42,5.6,South,18.4,-,N/A,Rain,Light Rain,190,2013-10-28 00:55:00
2:25 AM,55.4,55.4,100,29.39,5.0,South,20.7,32.2,N/A,Rain,Light Rain Showers,190,2013-10-28 01:25:00
2:55 AM,57.2,55.4,94,29.36,4.3,SSW,20.7,-,N/A,Rain,Rain Showers,200,2013-10-28 01:55:00
3:25 AM,57.2,55.4,94,29.33,3.7,South,19.6,33.4,N/A,Rain,Rain Showers,190,2013-10-28 02:25:00
3:55 AM,55.4,55.4,100,29.30,3.7,South,18.4,29.9,N/A,Rain-Hail,Rain Showers,190,2013-10-28 02:55:00
4:25 AM,55.4,55.4,100,29.24,6.2,South,20.7,-,N/A,Rain,Light Rain,190,2013-10-28 03:25:00
4:55 AM,57.2,55.4,94,29.21,6.2,South,23.0,-,N/A,,Light Drizzle,190,2013-10-28 03:55:00
5:25 AM,59.0,55.4,88,29.21,3.1,SSW,31.1,46.0,N/A,Rain,Light Rain,200,2013-10-28 04:25:00
5:55 AM,59.0,53.6,82,29.18,6.2,SSW,29.9,43.7,N/A,,Mostly Cloudy,200,2013-10-28 04:55:00
6:25 AM,60.8,53.6,77,29.18,6.2,SSW,33.4,48.3,N/A,,Overcast,200,2013-10-28 05:25:00
6:55 AM,60.8,51.8,72,29.15,6.2,SSW,32.2,51.8,N/A,,Overcast,210,2013-10-28 05:55:00
7:00 AM,61,53,66,29.16,25,SSW,33.6,,,,Partly Cloudy,200,2013-10-28 06:00:00
7:25 AM,60.8,51.8,72,29.12,6.2,SSW,32.2,46.0,N/A,,Mostly Cloudy,200,2013-10-28 06:25:00
7:55 AM,60.8,53.6,77,29.12,6.2,SSW,26.5,43.7,N/A,,Mostly Cloudy,200,2013-10-28 06:55:00
8:25 AM,60.8,53.6,77,29.12,6.2,SSW,31.1,50.6,N/A,,Mostly Cloudy,200,2013-10-28 07:25:00
8:55 AM,60.8,53.6,77,29.12,6.2,SSW,31.1,46.0,N/A,,Mostly Cloudy,200,2013-10-28 07:55:00
9:25 AM,62.6,53.6,72,29.12,6.2,SSW,35.7,52.9,N/A,,Overcast,200,2013-10-28 08:25:00
9:55 AM,60.8,53.6,77,29.15,6.2,SW,34.5,62.1,N/A,,Scattered Clouds,220,2013-10-28 08:55:00
10:00 AM,61,52,63,29.16,12,SW,35.8,,,,Scattered Clouds,220,2013-10-28 09:00:00
10:25 AM,60.8,50.0,68,29.15,6.2,SW,39.1,58.7,N/A,,Scattered Clouds,230,2013-10-28 09:25:00
10:55 AM,60.8,50.0,68,29.18,6.2,SW,41.4,59.8,N/A,,Scattered Clouds,230,2013-10-28 09:55:00
11:25 AM,59.0,50.0,72,29.21,6.2,SW,35.7,55.2,N/A,,Mostly Cloudy,230,2013-10-28 10:25:00
11:55 AM,59.0,50.0,72,29.24,6.2,SW,41.4,58.7,N/A,,Scattered Clouds,230,2013-10-28 10:55:00
12:25 PM,59.0,48.2,67,29.30,6.2,WSW,35.7,51.8,N/A,,Mostly Cloudy,240,2013-10-28 11:25:00
12:55 PM,57.2,50.0,77,29.33,6.2,WSW,27.6,42.6,N/A,Rain,Light Rain,250,2013-10-28 11:55:00
1:00 PM,58,49,64,29.35,14,WSW,26.8,,,Rain,Light Drizzle,240,2013-10-28 12:00:00
1:25 PM,59.0,48.2,67,29.33,6.2,WSW,29.9,41.4,N/A,,Scattered Clouds,240,2013-10-28 12:25:00
1:55 PM,59.0,48.2,67,29.36,6.2,WSW,24.2,35.7,N/A,,Scattered Clouds,250,2013-10-28 12:55:00
2:25 PM,59.0,50.0,72,29.36,6.2,WSW,23.0,34.5,N/A,,Mostly Cloudy,240,2013-10-28 13:25:00
2:55 PM,59.0,48.2,67,29.39,6.2,WSW,26.5,-,N/A,,Mostly Cloudy,240,2013-10-28 13:55:00
3:25 PM,57.2,50.0,77,29.39,6.2,WSW,20.7,-,N/A,Rain,Light Rain,240,2013-10-28 14:25:00
3:55 PM,57.2,50.0,77,29.42,6.2,WSW,23.0,-,N/A,,Partly Cloudy,240,2013-10-28 14:55:00
4:00 PM,56,50,73,29.44,9,WSW,20.1,,,Rain,Rain,240,2013-10-28 15:00:00
4:25 PM,57.2,50.0,77,29.42,6.2,SW,19.6,-,N/A,,Mostly Cloudy,230,2013-10-28 15:25:00
4:55 PM,57.2,50.0,77,29.44,6.2,SW,24.2,-,N/A,,Partly Cloudy,230,2013-10-28 15:55:00
5:25 PM,55.4,48.2,77,29.44,6.2,SW,23.0,-,N/A,,Mostly Cloudy,230,2013-10-28 16:25:00
5:55 PM,57.2,48.2,72,29.47,6.2,SW,24.2,-,N/A,,Scattered Clouds,230,2013-10-28 16:55:00
6:25 PM,55.4,48.2,77,29.47,6.2,SW,21.9,-,N/A,,Unknown,230,2013-10-28 17:25:00
6:55 PM,55.4,48.2,77,29.50,6.2,SW,21.9,34.5,N/A,,Scattered Clouds,220,2013-10-28 17:55:00
7:00 PM,55,48,70,29.51,12,SW,24.6,,,Thunderstorm,Light Thunderstorm,220,2013-10-28 18:00:00
7:25 PM,53.6,48.2,82,29.50,6.2,SSW,21.9,40.3,N/A,Thunderstorm,Thunderstorm,210,2013-10-28 18:25:00
7:55 PM,53.6,48.2,82,29.53,6.2,SW,23.0,34.5,N/A,,Mostly Cloudy,220,2013-10-28 18:55:00
8:25 PM,53.6,50.0,88,29.53,6.2,SW,19.6,-,N/A,Rain,Light Rain,220,2013-10-28 19:25:00
8:55 PM,53.6,48.2,82,29.56,6.2,SW,17.3,-,N/A,,Partly Cloudy,220,2013-10-28 19:55:00
9:25 PM,53.6,46.4,77,29.56,6.2,SW,15.0,-,N/A,,Mostly Cloudy,230,2013-10-28 20:25:00
9:55 PM,53.6,48.2,82,29.59,6.2,SW,13.8,-,N/A,,Partly Cloudy,220,2013-10-28 20:55:00
10:00 PM,53,49,80,29.60,12,SW,13.4,,,,Partly Cloudy,220,2013-10-28 21:00:00
10:25 PM,53.6,48.2,82,29.59,6.2,SW,15.0,-,N/A,,Mostly Cloudy,220,2013-10-28 21:25:00
10:55 PM,53.6,48.2,82,29.59,6.2,SW,17.3,-,N/A,,Scattered Clouds,220,2013-10-28 21:55:00
11:25 PM,51.8,48.2,88,29.62,6.2,SSW,18.4,-,N/A,Rain-Hail,Light Rain Showers,210,2013-10-28 22:25:00
11:55 PM,50.0,46.4,87,29.62,6.2,SSW,18.4,-,N/A,,Scattered Clouds,210,2013-10-28 22:55:00